Location: *
(48.8489°N, 2.3218°E)
Time: 15:55:17
(UTC+00:00)

Cosmos 2227 Rocket - Pass Details

Date: 23 August 2019
Orbit: 837 x 846 km, 71.0° (Epoch: 14 September)

Event Time Altitude Azimuth Distance (km) Brightness Sun altitude
Exits shadow 23:54:52 12° 89° (E) 2,289 4.4 -29.9°
Drops below altitude 10° 23:56:34 10° 71° (ENE) 2,465 4.8 -29.9°
Sets 00:00:30 0° 44° (NE) 3,409 6.0 -29.9°
